Miscellaneous Local Product
Issued by NWS North Platte, NE

Home | Current Version | Previous Version | Text Only | Print | Product List | Glossary On
Versions: 1 2 3 4 5 6 7 8 9 10 11 12 13 14 15 16 17 18 19 20 21 22 23 24 25 26 27 28 29 30 31 32 33 34 35 36 37 38 39 40 41 42 43 44 45 46 47 48 49 50
928
AXUS43 KLBF 222310
MISLBF


WESTERN AND NORTH CENTRAL NEBRASKA HOURLY WEATHER ROUNDUP
NATIONAL WEATHER SERVICE NORTH PLATTE NE
600 PM CDT SUN MAY 22 2016

NOTE: "FAIR" INDICATES FEW OR NO CLOUDS BELOW 12,000 FEET WITH NO
SIGNIFICANT WEATHER AND/OR OBSTRUCTIONS TO VISIBILITY.

NOTE: STATIONS NOT REPORTING VARIABLES SUCH AS SKY/WEATHER OR
PRESSURE ARE PROVIDED BY RAWS AND APRS NETWORKS AND ARE NOT UNDER
NATIONAL WEATHER SERVICE QUALITY CONTROL.

...OBSERVATIONS IN AND NEAR THE EASTERN PANHANDLE OF NEBRASKA...

CITY           SKY/WX    TMP DP  RH WIND       PRES   REMARKS
PINE RIDGE     SUNNY     77  44  30 NW12      29.67F
CHADRON        SUNNY     76  39  26 VRB3      29.68F
ALLIANCE       SUNNY     78  50  37 CALM      29.67F
SIDNEY         SUNNY     80  44  27 S10       29.68F
CRESCENT LAKE    N/A     81  52  36 S9G18       N/A
BIG SPRINGS      N/A     88  42  19 SW16        N/A
$$

...OBSERVATIONS IN NORTHERN NEBRASKA AND FAR SOUTHERN SOUTH DAKOTA...

CITY           SKY/WX    TMP DP  RH WIND       PRES   REMARKS
WINNER         FAIR      75  62  64 SE8       29.63F
VALENTINE      TSTM      71  63  75 SE29G37   29.54F
THEDFORD       MOSUNNY   83  65  55 S33G40    29.64F
AINSWORTH      CLOUDY    76  64  66 SE23G30   29.65F
O`NEILL        PTSUNNY   79  65  61 S23G33    29.71F
ORD            MOSUNNY   78  65  63 S21G35    29.71F
BROKEN BOW     MOSUNNY   79  65  62 S29G41    29.70F
BUTTE            N/A     76  65  67 S20G35      N/A
CHAMBERS         N/A     80  67  63 S13G20      N/A
EWING            N/A     79  67  65 S12G25      N/A
$$

...OBSERVATIONS IN SOUTHWEST NEBRASKA AND FAR NORTHEAST COLORADO...

CITY           SKY/WX    TMP DP  RH WIND       PRES   REMARKS
WRAY           FAIR      88  27  11 S22G31    29.64F
HOLYOKE        FAIR      91  28  10 S22G35    29.63F
IMPERIAL       SUNNY     86  52  30 S23G37    29.62F
OGALLALA       MOSUNNY   87  38  17 S20G29    29.62F
NORTH PLATTE   MOSUNNY   82  65  56 S24G38    29.64F
MCCOOK         SUNNY     84  66  54 S30G43    29.67F
LEXINGTON      PTSUNNY   79  65  63 SE24G36   29.71F
PAXTON           N/A     88  58  35 S20         N/A
STAPLETON        N/A     82  67  60 S7G15       N/A
GOTHENBURG       N/A     78  62  58 SE18        N/A
CALLAWAY         N/A     81  67  62 S28         N/A
$$

...OBSERVATIONS IN CENTRAL LINCOLN COUNTY AREA...

CITY           SKY/WX    TMP DP  RH WIND       PRES   REMARKS
N.P. AIRPORT   MOSUNNY   82  65  56 S24G38    29.64F
N.P. DOWNTOWN    N/A     83  67  58 SE9G21      N/A
N.P. SOUTHEAST   N/A     82  66  58 SE15G26     N/A
N.P. HILLCREST   N/A     82  67  60 SE23G33     N/A
$$

...SOME OBSERVATIONS FROM AROUND THE REGION...

CITY           SKY/WX    TMP DP  RH WIND       PRES   REMARKS
DENVER         MOSUNNY   73  48  41 NW22      29.70F
LARAMIE        LGT RAIN  45  41  86 NE22G28   29.89R FOG
CHEYENNE       CLOUDY    65  41  41 S8        29.80S
SCOTTSBLUFF    SUNNY     79  43  27 W6        29.69F
RAPID CITY     SUNNY     79  35  20 W14       29.64F
BISMARCK       SUNNY     79  60  52 SW8G18    29.60F
PIERRE         CLOUDY    78  62  57 S17       29.61R
SIOUX FALLS    CLOUDY    80  58  46 S23G30    29.77F
OMAHA          CLOUDY    82  61  48 SE23G31   29.86F
GRAND ISLAND   PTSUNNY   79  65  62 S23G33    29.78F
KANSAS CITY    PTSUNNY   78  60  53 SE14      29.94F
WICHITA        PTSUNNY   79  66  64 S26       29.87F
OKLAHOMA CITY  PTSUNNY   79  68  69 SE18      29.90F
DALLAS         PTSUNNY   84  69  60 SE13      29.88F
AMARILLO       MOSUNNY   85  60  42 S23G33    29.80F
DODGE CITY     MOSUNNY   75  66  73 SE29G39   29.80F
HAYS           MOSUNNY   81  64  57 S33G41    29.77F
GOODLAND       SUNNY     87  44  22 S31G44    29.67F
$$




USA.gov is the U.S. government's official web portal to all federal, state and local government web resources and services.